Lexington Weather

Lexington, Massachusetts, USA

68°F
9/23/2021 5:41am 
  • Lexington Conditions: Mostly cloudy
  • Temperature: 67.5°F / 19.7°CWarmer 0.4°F than last hour.
  • Dew Point: 66.6°FIncreased 0.4°Fsince last hour.
  • Relative Humidity: 97
  • Wind: Calm, 10-min avg: Calm, gust: 4 mph
  • Barometer: 30.03 in Steady
  • Visibility: 10 miles
  • Rain Today: 0.00 in
  •   

Regional Weather Roundup
for Boston / Norton, MA

        
000
ASUS41 KBOX 210404
RWRBOX

REGIONAL WEATHER ROUNDUP
NATIONAL WEATHER SERVICE BOSTON/NORTON MA
1200 AM EDT TUE SEP 21 2021

NOTE:  "FAIR" INDICATES FEW OR NO CLOUDS BELOW 12,000 FEET WITH NO 
SIGNIFICANT WEATHER AND/OR OBSTRUCTIONS TO VISIBILITY.

MAZALL-210500-
EASTERN MASSACHUSETTS
  
CITY           SKY/WX    TMP DP  RH WIND       PRES   REMARKS
BOSTON         PTCLDY    61  55  81 SE5       30.42S                  
BEVERLY        CLEAR     60  53  77 SE5       30.41S                  
LAWRENCE       CLEAR     56  54  93 CALM      30.44S                  
BEDFORD        CLEAR     54  53  97 CALM      30.41S                  
BLUE HILL      NOT AVBL                                               
NORWOOD        CLEAR     51  48  89 CALM      30.42R                  
MARSHFIELD     CLEAR     61  50  67 SE5       30.42R                  
PLYMOUTH       CLEAR     53  50  89 CALM      30.42S                  
TAUNTON        CLEAR     48  46  93 CALM      30.42R FOG              
NEW BEDFORD    CLEAR     52  51  97 NW3       30.41S                  
$$

MAZALL-210500-
CAPE COD AND THE ISLANDS
  
CITY           SKY/WX    TMP DP  RH WIND       PRES   REMARKS
FALMOUTH       CLEAR     54  50  87 NE6       30.42S                  
HYANNIS        CLEAR     51  49  92 CALM      30.41S                  
CHATHAM        CLEAR     61  55  81 E6        30.43S                  
PROVINCETOWN   CLEAR     52  49  89 E3        30.44R                  
NANTUCKET      CLEAR     58  53  84 E6        30.42R                  
MARTHAS VNYRD  CLEAR     47  46  97 E3        30.42R                  
$$
 
MAZALL-210500-
CENTRAL AND WESTERN MASSACHUSETTS
  
CITY           SKY/WX    TMP DP  RH WIND       PRES   REMARKS
WORCESTER      CLEAR     56  52  86 S5        30.43R                  
FITCHBURG      CLEAR     54  51  90 NW3       30.43R                  
ORANGE         CLEAR     54  52  93 CALM      30.43R                  
SPRINGFIELD    CLEAR     56  55  98 CALM      30.40R                  
WESTFIELD      CLEAR     56  55  97 SE3       30.40R                  
NORTH ADAMS    CLEAR     62  56  80 E8        30.37S                  
PITTSFIELD     CLEAR     58  53  84 SE10      30.38R                  
$$
 
RIZALL-210500-
RHODE ISLAND
  
CITY           SKY/WX    TMP DP  RH WIND       PRES   REMARKS
PROVIDENCE     CLEAR     59  55  87 CALM      30.42R                  
NEWPORT        CLEAR     56  51  84 SE3       30.41R                  
SMITHFIELD     CLEAR     54  53  97 SE3       30.42S                  
WESTERLY       CLEAR     54  54 100 CALM      30.40S                  
$$
 
CTZALL-210500-
CONNECTICUT
  
CITY           SKY/WX    TMP DP  RH WIND       PRES   REMARKS
BRADLEY INTL   PTCLDY    58  54  86 S6        30.40S                  
HARTFORD       CLEAR     58  54  86 CALM      30.40R                  
BRIDGEPORT     CLEAR     67  55  65 SE9       30.39R                  
DANBURY        CLEAR     58  54  86 SE5       30.40S                  
GROTON         CLEAR     64  54  69 E9        30.40R                  
NEW HAVEN      CLEAR     68  56  65 SE7       30.39S                  
CHESTER        FAIR      55  55 100 CALM      30.41R                  
MERIDEN        CLEAR     55  52  89 CALM      30.40R                  
WILLIMANTIC    CLEAR     54  53  97 N3        30.43R                  
OXFORD         CLEAR     57  54  89 SE5       30.41S                  
$$

MEZ002-015-021-024-NHZ003-005-008-011-012-014-VTZ005-008-210500-
NORTHERN NEW ENGLAND
  
CITY           SKY/WX    TMP DP  RH WIND       PRES   REMARKS
PORTLAND ME    CLEAR     54  53  97 CALM      30.43S                  
BANGOR ME      CLEAR     53  51  93 S5        30.43R                  
CONCORD NH     CLEAR     53  51  93 E3        30.42S                  
MANCHESTER NH  CLEAR     58  52  80 CALM      30.41R                  
NASHUA NH      PTCLDY    54  54 100 NW3       30.43R                  
PORTSMOUTH NH  PTCLDY    55  52  90 CALM      30.43S                  
JAFFREY NH     CLEAR     53  53 100 CALM      30.43R                  
KEENE NH       PTCLDY    55  54  96 CALM      30.42R                  
BURLINGTON VT  PTCLDY    64  55  72 S6        30.30S                  
MT. WASHINGTON MOCLDY    54  16  22 SW14        N/A                   
$$

NYZ052-076-210500-
EASTERN NEW YORK
  
CITY           SKY/WX    TMP DP  RH WIND       PRES   REMARKS
ALBANY         PTCLDY    59  57  93 SE8       30.35R                  
NEW YORK CITY  PTCLDY    68  55  63 SE6       30.37R                  
$$
 
ANZALL-210500-
MARINE OBSERVATIONS
  
STATION/POSITION TIME  TEMP    WIND        PRES    VSBY  WAVE
                       AIR SEA DIR/SP/G                  HT/PER
                 (UTC) (F)     (DEG/KT/KT) (MB)    (MI)  (FT/S)
BOSTON BUOY      0340      66  130/ 12/ 16 1030.3R
BUZZARDS BAY     0300          110/ 14/ 15 1030.4R
NANTUCKET SOUND  0340   64 72  110/ 12/ 14 1029.8R
MASS BAY-STELLWA 0304   64     150/ 10/ 14 1029.7R  1 7/8  3/ 8
ISLE OF SHOALS   0300   64     150/ 14/ 16 1029.5R
S OF BLOCK IS    0326      70                N/A           3/11
$$

......................KEY.........................
  SKY/WX - SKY CONDITION/PRESENT WEATHER
  TMP    - TEMPERATURE IN FAHRENHEIT
  DWPT   - DEWPOINT IN FAHRENHEIT
  RH     - RELATIVE HUMIDITY IN PERCENT
  WIND   - DIRECTION AND SPEED IN MPH
  PRES   - MEAN SEA LEVEL PRESSURE IN INCHES OF HG
  WCI    - WIND CHILL INDEX
  VSB    - VISIBILITY IN MILES
  HX     - HEAT INDEX
  TC     - TEMPERATURE IN CELSIUS
  VRB    - VARIABLE WIND DIRECTION
  N/A    - NOT AVAILABLE
  
      

Other recent Regional Weather Roundups

Thu Sep 23, 5:04am

Thu Sep 23, 4:04am

Thu Sep 23, 3:04am

Thu Sep 23, 2:04am

Thu Sep 23, 1:04am

Thu Sep 23, 12:04am

Wed Sep 22, 11:04pm

Wed Sep 22, 10:04pm

Wed Sep 22, 9:04pm

Wed Sep 22, 8:04pm

Wed Sep 22, 7:04pm

Wed Sep 22, 6:04pm

Wed Sep 22, 5:04pm

Wed Sep 22, 4:04pm

Wed Sep 22, 3:04pm

Wed Sep 22, 2:04pm

Wed Sep 22, 1:04pm

Wed Sep 22, 12:05pm

Wed Sep 22, 11:04am

Wed Sep 22, 10:04am

Wed Sep 22, 9:04am

Wed Sep 22, 8:04am

Wed Sep 22, 7:04am

Wed Sep 22, 6:04am

Wed Sep 22, 5:04am

Wed Sep 22, 4:04am

Wed Sep 22, 3:04am

Wed Sep 22, 2:04am

Wed Sep 22, 1:04am

Wed Sep 22, 12:04am

Tue Sep 21, 11:04pm

Tue Sep 21, 10:04pm

Tue Sep 21, 9:04pm

Tue Sep 21, 8:04pm

Tue Sep 21, 7:04pm

Tue Sep 21, 6:04pm

Tue Sep 21, 5:04pm

Tue Sep 21, 4:04pm

Tue Sep 21, 3:04pm

Tue Sep 21, 2:04pm

Tue Sep 21, 1:04pm

Tue Sep 21, 12:04pm

Tue Sep 21, 11:04am

Tue Sep 21, 10:04am

Tue Sep 21, 9:04am

Tue Sep 21, 8:04am

Tue Sep 21, 7:04am

Tue Sep 21, 6:04am

Tue Sep 21, 5:04am

Tue Sep 21, 4:04am

Tue Sep 21, 3:04am

Tue Sep 21, 2:04am

Tue Sep 21, 1:04am

Mon Sep 20, 11:04pm

Mon Sep 20, 10:04pm

Mon Sep 20, 9:04pm

Mon Sep 20, 8:04pm

Mon Sep 20, 7:04pm

Mon Sep 20, 6:04pm

Mon Sep 20, 5:04pm

Mon Sep 20, 4:04pm

Mon Sep 20, 3:04pm

Mon Sep 20, 2:04pm

Mon Sep 20, 1:04pm

Mon Sep 20, 12:04pm

Mon Sep 20, 11:04am

Mon Sep 20, 10:04am

Mon Sep 20, 9:04am

Mon Sep 20, 7:04am

Mon Sep 20, 6:04am

Mon Sep 20, 5:04am

Mon Sep 20, 4:04am

Mon Sep 20, 3:04am

Mon Sep 20, 2:04am

Mon Sep 20, 1:04am

Mon Sep 20, 12:04am

Sun Sep 19, 11:04pm

Sun Sep 19, 10:04pm

Sun Sep 19, 9:04pm

Sun Sep 19, 8:04pm

Sun Sep 19, 7:04pm

Sun Sep 19, 6:04pm

Sun Sep 19, 5:04pm

Sun Sep 19, 4:04pm

Sun Sep 19, 3:04pm

Sun Sep 19, 2:05pm

Sun Sep 19, 1:04pm

Sun Sep 19, 12:04pm

Sun Sep 19, 11:04am

Sun Sep 19, 10:05am

Sun Sep 19, 9:04am

Sun Sep 19, 8:04am

Sun Sep 19, 7:04am

Sun Sep 19, 6:04am

Sun Sep 19, 5:04am

Sun Sep 19, 4:04am

Sun Sep 19, 3:04am

Sun Sep 19, 2:04am

Sun Sep 19, 1:04am

Sun Sep 19, 12:04am

Sat Sep 18, 11:05pm

Sat Sep 18, 10:04pm

Sat Sep 18, 9:04pm

Sat Sep 18, 8:04pm

Sat Sep 18, 7:04pm

Sat Sep 18, 6:04pm

Sat Sep 18, 5:04pm

Sat Sep 18, 4:04pm

Sat Sep 18, 3:04pm

Sat Sep 18, 2:04pm

Sat Sep 18, 1:04pm

Sat Sep 18, 12:04pm

Sat Sep 18, 11:04am

Sat Sep 18, 10:04am

Sat Sep 18, 9:04am

Sat Sep 18, 8:04am

Sat Sep 18, 7:04am

Sat Sep 18, 6:04am

Sat Sep 18, 5:04am

Sat Sep 18, 4:04am

Sat Sep 18, 3:04am

Sat Sep 18, 2:04am

Sat Sep 18, 1:04am

Sat Sep 18, 12:04am

Fri Sep 17, 11:04pm

Fri Sep 17, 10:04pm

Fri Sep 17, 9:04pm

Fri Sep 17, 8:04pm

Fri Sep 17, 7:04pm

Fri Sep 17, 6:04pm

Fri Sep 17, 5:04pm

Fri Sep 17, 4:04pm

Fri Sep 17, 3:04pm

Fri Sep 17, 2:04pm

Fri Sep 17, 1:04pm

Fri Sep 17, 12:05pm

Fri Sep 17, 11:04am

Fri Sep 17, 10:04am

Fri Sep 17, 9:04am

Fri Sep 17, 8:04am

Fri Sep 17, 7:04am

Fri Sep 17, 6:04am

Fri Sep 17, 5:04am

Fri Sep 17, 4:04am

Fri Sep 17, 3:04am

Fri Sep 17, 2:04am

Fri Sep 17, 1:04am

Fri Sep 17, 12:04am

Thu Sep 16, 11:04pm

Thu Sep 16, 10:04pm

Thu Sep 16, 9:04pm

Thu Sep 16, 8:04pm

Thu Sep 16, 7:04pm

Thu Sep 16, 6:04pm

Thu Sep 16, 5:04pm

Thu Sep 16, 4:04pm

Thu Sep 16, 3:04pm

Thu Sep 16, 2:04pm

Thu Sep 16, 1:05pm

Thu Sep 16, 12:04pm

Thu Sep 16, 11:05am

Thu Sep 16, 10:05am

Thu Sep 16, 9:04am

Thu Sep 16, 8:04am

Thu Sep 16, 7:04am

Thu Sep 16, 6:04am

Meta data:

ID: f0d7ad68-be47-4438-b909-1c04aa8a0a5a
Link: https://api.weather.gov/products/f0d7ad68-be47-4438-b909-1c04aa8a0a5a